Change the Weather History Date:

Monday, January 28, 2013

  Actual Average Record
Temperature  
Mean Temperature 31 °F 16 °F  
Max Temperature 34 °F 25 °F 45 °F (1989)
Min Temperature 28 °F 8 °F -20 °F (1966)
Degree Days  
Heating Degree Days 34 49  
Month to date heating degree days 1312 1385  
Since 1 July heating degree days 4240 4528  
Cooling Degree Days 0 0  
Month to date cooling degree days 0 0  
Year to date cooling degree days 0 0  
Moisture  
Dew Point 30 °F    
Average Humidity 95    
Maximum Humidity 100    
Minimum Humidity 89    
Precipitation  
Precipitation 0.13 in 0.03 in 0.20 in (1949)
Month to date precipitation 0.26 0.42  
Sea Level Pressure  
Sea Level Pressure 29.80 in    
Wind  
Wind Speed 6 mph (SE)    
Max Wind Speed 14 mph    
Max Gust Speed 16 mph    
T = Trace of Precipitation, MM = Missing Value Source: NWS Daily Summary

Daily Weather History Graph

Daily Weather History Graph

Search for Another Location

Airport or City:

Trip Planner

Search our weather history database for the weather conditions in past years. The results will help you decide how hot, cold, wet, or windy it might be!

Date:

Astronomy

Jan. 28, 2013 Rise Set
Actual Time 7:38 AM CST 5:25 PM CST
Civil Twilight 7:08 AM CST 5:56 PM CST
Nautical Twilight 6:33 AM CST 6:30 PM CST
Astronomical Twilight 6:00 AM CST 7:04 PM CST
Moon 7:26 PM CST (1/28) 8:00 AM CST (1/28)
Length of Visible Light 10h 48m
Length of Day
9h 47m
Full, 98% of the Moon is Illuminated
Jan 28
Full
Feb 3
Last Quarter
Feb 10
New
Feb 17
First Quarter
Feb 25
Full

Hourly Weather History & Observations

Time (CST) Temp. Windchill Dew Point Humidity Pressure Visibility Wind Dir Wind Speed Gust Speed Precip Events Conditions
12:52 AM 30.0 °F 23.2 °F 28.9 °F 96% 29.82 in 0.5 mi West 6.9 mph - N/A Fog Light Freezing Fog
1:52 AM 30.0 °F 21.1 °F 28.9 °F 96% 29.84 in 0.5 mi WNW 10.4 mph - N/A Fog Light Freezing Fog
2:52 AM 30.0 °F 25.2 °F 28.9 °F 96% 29.84 in 0.2 mi WNW 4.6 mph - N/A Fog Light Freezing Fog
3:52 AM 28.9 °F 21.9 °F 28.0 °F 96% 29.86 in 0.2 mi West 6.9 mph - N/A Fog Light Freezing Fog
4:52 AM 28.9 °F - 28.9 °F 100% 29.86 in 0.2 mi Calm Calm - N/A Fog Light Freezing Fog
5:52 AM 28.9 °F 21.9 °F 27.0 °F 92% 29.88 in 0.2 mi SW 6.9 mph - N/A Fog Light Freezing Fog
6:52 AM 28.9 °F - 28.0 °F 96% 29.88 in 0.2 mi Calm Calm - N/A Fog Light Freezing Fog
7:52 AM 30.0 °F 25.2 °F 28.0 °F 92% 29.89 in 0.2 mi SW 4.6 mph - N/A Fog Light Freezing Fog
8:52 AM 30.9 °F - 30.0 °F 96% 29.90 in 0.2 mi Calm Calm - N/A Fog Light Freezing Fog
9:52 AM 32.0 °F 27.5 °F 30.0 °F 92% 29.89 in 0.2 mi SSE 4.6 mph - N/A Fog Fog
10:52 AM 32.0 °F 24.2 °F 30.0 °F 92% 29.89 in 0.2 mi SSE 9.2 mph - N/A Fog Fog
11:52 AM 30.9 °F 21.2 °F 30.0 °F 96% 29.87 in 0.2 mi SSE 12.7 mph - N/A Fog Light Freezing Fog
12:52 PM 32.0 °F 23.6 °F 30.0 °F 92% 29.86 in 0.2 mi South 10.4 mph - 0.02 in Fog Fog
1:52 PM 32.0 °F 24.8 °F 30.9 °F 96% 29.81 in 0.2 mi SSE 8.1 mph - 0.03 in Fog Fog
2:52 PM 33.1 °F 26.1 °F 30.9 °F 92% 29.82 in 0.2 mi SSE 8.1 mph - 0.03 in Fog Fog
3:52 PM 32.0 °F 24.8 °F 30.9 °F 96% 29.78 in 0.2 mi ESE 8.1 mph - 0.02 in Fog Fog
4:52 PM 33.1 °F 26.1 °F 30.9 °F 92% 29.77 in 0.2 mi East 8.1 mph - 0.01 in Fog Fog
5:52 PM 33.1 °F 26.1 °F 30.9 °F 92% 29.76 in 0.5 mi East 8.1 mph - N/A Fog Fog
6:52 PM 34.0 °F 26.6 °F 30.9 °F 89% 29.75 in 0.5 mi East 9.2 mph - 0.00 in Fog Fog
7:52 PM 34.0 °F 28.0 °F 32.0 °F 92% 29.73 in 0.5 mi East 6.9 mph - N/A Fog Fog
8:52 PM 34.0 °F 28.8 °F 32.0 °F 92% 29.70 in 0.5 mi ESE 5.8 mph - N/A Fog Fog
9:52 PM 34.0 °F 28.8 °F 32.0 °F 92% 29.66 in 1.0 mi East 5.8 mph - N/A   Mist
10:07 PM 33.8 °F 28.6 °F 32.0 °F 93% 29.61 in 0.8 mi East 5.8 mph - N/A   Mist
10:52 PM 33.1 °F 30.0 °F 30.9 °F 92% 29.62 in 0.5 mi East 3.5 mph - 0.01 in Fog Fog
11:52 PM 33.1 °F 28.7 °F 30.9 °F 92% 29.59 in 0.2 mi East 4.6 mph - N/A Fog Fog